Terminal Aerodrome Forecast
Issued by NWS Northern Indiana

Home | Current Version | Previous Version | Graphics & Text | Print | Product List | Glossary On
Versions: 1 2 3 4 5 6 7 8 9 10 11 12 13 14 15 16 17
000
FTUS43 KIWX 221600 AAA
TAFFWA
TAF AMD
KFWA 221612Z 2216/2312 05007KT P6SM SCT025
      TEMPO 2216/2218 BKN025
     FM222100 04005KT P6SM SKC=

USA.gov is the U.S. government's official web portal to all federal, state and local government web resources and services.